Weather History for KHWO - May, 2013

Change the Weather History Date:

Tuesday, May 7, 2013

  Actual Average (KFLL) Record (KFLL)
Temperature  
Mean Temperature 74 °F 79 °F  
Max Temperature 84 °F 85 °F 92 °F (1955)
Min Temperature 64 °F 73 °F 52 °F (1921)
Degree Days  
Heating Degree Days 0 0  
Month to date heating degree days 0  
Since 1 July heating degree days 112  
Cooling Degree Days 9 14  
Month to date cooling degree days 94  
Year to date cooling degree days 1041  
Growing Degree Days 24 (Base 50)    
Moisture  
Dew Point 58 °F    
Average Humidity 59    
Maximum Humidity 81    
Minimum Humidity 33    
Precipitation  
Precipitation 0.00 in 0.09 in 3.84 in (1981)
Month to date precipitation 0.53  
Year to date precipitation 13.37  
Snow  
Snow 0.00 in - - ()
Month to date snowfall  
Since 1 July snowfall  
Snow Depth -    
Sea Level Pressure  
Sea Level Pressure 30.04 in    
Wind  
Wind Speed 8 mph (WNW)    
Max Wind Speed 16 mph    
Max Gust Speed 22 mph    
Visibility 10 miles    
Events      
T = Trace of Precipitation, MM = Missing Value Source: NWS Daily Summary

Daily Weather History Graph

Daily Weather History Graph

Search for Another Location

Airport or City:

Trip Planner

Search our weather history database for the weather conditions in past years. The results will help you decide how hot, cold, wet, or windy it might be!

Date:

Astronomy

May. 07, 2013 Rise Set
Actual Time 6:39 AM EDT 7:55 PM EDT
Civil Twilight 6:14 AM EDT 8:20 PM EDT
Nautical Twilight 5:45 AM EDT 8:49 PM EDT
Astronomical Twilight 5:15 AM EDT 9:20 PM EDT
Moon 5:00 AM EDT (5/7) 6:03 PM EDT (5/7)
Length of Visible Light 14h 05m
Length of Day
13h 16m
Waning Crescent, 5% of the Moon is Illuminated
May 7
Waning Crescent
May 9
New
May 18
First Quarter
May 25
Full
May 31
Last Quarter

Hourly Weather History & Observations

Time (EDT) Temp. Heat Index Dew Point Humidity Pressure Visibility Wind Dir Wind Speed Gust Speed Precip Events Conditions
12:53 AM 71.1 °F - 64.0 °F 78% 30.03 in 10.0 mi West 5.8 mph - N/A   Clear
1:53 AM 70.0 °F - 64.0 °F 81% 30.02 in 10.0 mi WNW 9.2 mph - N/A   Clear
2:53 AM 68.0 °F - 61.0 °F 78% 30.01 in 10.0 mi NW 8.1 mph - N/A   Clear
4:53 AM 64.9 °F - 59.0 °F 81% 30.02 in 10.0 mi NW 4.6 mph - N/A   Partly Cloudy
5:53 AM 64.9 °F - 59.0 °F 81% 30.02 in 10.0 mi NW 6.9 mph - N/A   Clear
6:53 AM 64.9 °F - 59.0 °F 81% 30.03 in 10.0 mi NNW 6.9 mph - N/A   Clear
7:53 AM 68.0 °F - 60.1 °F 76% 30.06 in 10.0 mi NNW 4.6 mph - N/A   Clear
8:53 AM 71.1 °F - 60.1 °F 68% 30.07 in 10.0 mi NNW 4.6 mph - N/A   Clear
9:53 AM 73.0 °F - 60.1 °F 64% 30.08 in 10.0 mi Calm Calm - N/A   Clear
10:53 AM 75.9 °F - 60.1 °F 58% 30.08 in 10.0 mi NW 6.9 mph - N/A   Unknown
11:53 AM 78.1 °F - 59.0 °F 52% 30.07 in 10.0 mi WNW 9.2 mph - N/A   Partly Cloudy
12:53 PM 81.0 °F 81.0 °F 57.0 °F 44% 30.06 in 10.0 mi West 12.7 mph 18.4 mph N/A   Clear
1:53 PM 81.0 °F 81.1 °F 57.9 °F 45% 30.05 in 10.0 mi WSW 8.1 mph 20.7 mph N/A   Scattered Clouds
2:53 PM 84.0 °F 83.0 °F 55.9 °F 38% 30.03 in 10.0 mi West 16.1 mph 19.6 mph N/A   Partly Cloudy
3:53 PM 84.0 °F 82.6 °F 54.0 °F 35% 30.01 in 10.0 mi WSW 11.5 mph 21.9 mph N/A   Partly Cloudy
4:53 PM 84.9 °F 83.2 °F 53.1 °F 33% 30.00 in 10.0 mi WSW 12.7 mph - N/A   Clear
5:53 PM 82.0 °F 82.1 °F 59.0 °F 45% 30.01 in 10.0 mi SSW 9.2 mph 18.4 mph N/A   Partly Cloudy
6:53 PM 81.0 °F 81.0 °F 57.0 °F 44% 30.00 in 10.0 mi WSW 10.4 mph - N/A   Partly Cloudy
7:53 PM 80.1 °F 80.2 °F 55.9 °F 43% 30.02 in 10.0 mi WNW 9.2 mph - N/A   Mostly Cloudy
8:53 PM 75.9 °F - 55.9 °F 50% 30.05 in 10.0 mi NW 11.5 mph - N/A   Clear
9:53 PM 73.9 °F - 55.9 °F 53% 30.07 in 10.0 mi West 9.2 mph - N/A   Clear
10:53 PM 73.0 °F - 57.0 °F 57% 30.09 in 10.0 mi West 8.1 mph - N/A   Clear
11:53 PM 71.1 °F - 59.0 °F 66% 30.10 in 10.0 mi West 4.6 mph - N/A   Clear